Location: Celina Division
(33.3022°N, 96.7580°W)
Time: 22:08:36
(UTC+00:00)

N. Korean satellite - Pass Details

Date: 02 December 2022
Orbit: 407 x 442 km, 97.3° (Epoch: 05 February)

Event Time Altitude Azimuth Distance (km) Brightness Sun altitude
Rises 11:01:23 0° 27° (NNE) 2,509 10.4 -27.1°
Reaches altitude 10° 11:03:46 10° 42° (NE) 1,621 9.6 -26.6°
Maximum altitude 11:06:34 23° 96° (E) 1,034 8.9 -26.0°
Drops below altitude 10° 11:09:20 10° 150° (SSE) 1,589 9.6 -25.4°
Sets 11:11:38 0° 166° (SSE) 2,445 10.5 -24.9°
